JCSAT-2B

Last updated on Mon Sep 07 2026 00:02:59 GMT+0000 (Coordinated Universal Time)

1 41471U 16028A 26249.33740425 -.00000180 00000+0 00000+0 0 9993 2 41471 0.0181 143.4633 0000862 35.9894 81.4522 1.00271449 37940
UTC large
Height (km)
Speed (km/s)
/
Latitude / Longitude
Inclination (degrees)
Orbital Period (minutes)
Azimuth
Elevation
Range (km)
Doppler Factor

Next 0 passes for location: London (51.5072 / 0.1276)

No passes found over London.
JCSAT-2B